Location: Pl�tzky
(52.0521°N, 11.8020°E)
Time: 15:30:42
(UTC+00:00)

Cosmos 1371 Rocket - Pass Details

Date: 22 November 2019
Orbit: 755 x 789 km, 74.0° (Epoch: 06 December)

Event Time Altitude Azimuth Distance (km) Brightness Sun altitude
Rises 15:49:55 0° 336° (NNW) 3,237 7.2 -5.8°
Reaches altitude 10° 15:52:22 10° 342° (NNW) 2,303 6.4 -6.1°
Maximum altitude 15:57:27 51° 58° (ENE) 947 4.1 -6.8°
Drops below altitude 10° 16:02:30 10° 135° (SE) 2,279 6.2 -7.5°
Sets 16:04:55 0° 140° (SE) 3,200 7.0 -7.9°
